Nuiqsut, AK

3:09 PM AKDT on October 17, 2017 (GMT -0800)
Nuiqsut

Weather History for PAQT - May, 2013

Change the Weather History Date:

Sunday, May 12, 2013

  Actual Average (PAKU) Record (PAKU)
Temperature  
Mean Temperature 26 °F -  
Max Temperature 28 °F 23 °F 44 °F (2016)
Min Temperature 24 °F 13 °F -5 °F (2011)
Degree Days  
Heating Degree Days 39    
Moisture  
Dew Point 27 °F    
Average Humidity 98    
Maximum Humidity 100    
Minimum Humidity 92    
Precipitation  
Precipitation 0.22 in - - ()
Sea Level Pressure  
Sea Level Pressure 29.56 in    
Wind  
Wind Speed 6 mph (ESE)    
Max Wind Speed 14 mph    
Max Gust Speed -    
Visibility 2 miles    
Events Fog , Snow    
Averages and records for this station are not official NWS values.
T = Trace of Precipitation, MM = Missing Value Source: NWS Daily Summary

Daily Weather History Graph

Daily Weather History Graph

Search for Another Location

Airport or City:

Trip Planner

Search our weather history database for the weather conditions in past years. The results will help you decide how hot, cold, wet, or windy it might be!

Date:

Astronomy

May. 12, 2013 Rise Set
Actual Time 3:04 AM AKDT 1:07 AM AKDT
Civil Twilight Sun does not rise Sun does not rise
Nautical Twilight Sun does not rise Sun does not rise
Astronomical Twilight Sun does not rise Sun does not rise
Moon No Moon Rise No Moon Set
Length of Visible Light 24h 00m
Length of Day
22h 02m
Waxing Crescent, 7% of the Moon is Illuminated
May 12
Waxing Crescent
May 17
First Quarter
May 24
Full
May 31
Last Quarter
Jun 8
New

Hourly Weather History & Observations

Time (AKDT) Temp. Windchill Dew Point Humidity Pressure Visibility Wind Dir Wind Speed Gust Speed Precip Events Conditions
12:06 AM 28.4 °F 23.3 °F 28.4 °F 100% 29.77 in 4.0 mi ENE 4.6 mph - 0.00 in Snow Light Snow
12:18 AM 28.4 °F 23.3 °F 28.4 °F 100% 29.76 in 4.0 mi East 4.6 mph - 0.00 in Snow Light Snow
12:53 AM 28.9 °F 21.1 °F 28.9 °F 100% 29.75 in 8.0 mi East 8.1 mph - 0.00 in Snow Light Snow
1:53 AM 28.0 °F 20.0 °F 28.0 °F 100% 29.73 in 9.0 mi East 8.1 mph - 0.00 in   Overcast
2:01 AM 28.4 °F 19.7 °F 28.4 °F 100% 29.72 in 8.0 mi East 9.2 mph - 0.00 in   Overcast
2:53 AM 28.9 °F 21.9 °F 28.9 °F 100% 29.70 in 9.0 mi SE 6.9 mph - 0.00 in   Overcast
3:12 AM 28.4 °F 22.2 °F 28.4 °F 100% 29.68 in 10.0 mi SE 5.8 mph - 0.00 in   Overcast
3:53 AM 28.0 °F 21.7 °F 28.0 °F 100% 29.66 in 10.0 mi SE 5.8 mph - 0.00 in   Overcast
4:53 AM 28.0 °F 20.0 °F 27.0 °F 96% 29.64 in 10.0 mi South 8.1 mph - 0.00 in   Overcast
5:15 AM 26.6 °F 18.2 °F 26.6 °F 100% 29.63 in 2.5 mi South 8.1 mph - 0.00 in Snow Light Snow
5:27 AM 26.6 °F 19.1 °F 26.6 °F 100% 29.62 in 2.5 mi SSE 6.9 mph - 0.00 in Snow Light Snow
5:39 AM 26.6 °F 16.8 °F 26.6 °F 100% 29.62 in 1.5 mi SSE 10.4 mph - 0.00 in Snow Light Snow
5:51 AM 26.6 °F 16.8 °F 26.6 °F 100% 29.61 in 1.2 mi South 10.4 mph - 0.00 in Snow Light Snow
5:53 AM 27.0 °F 16.7 °F 27.0 °F 100% 29.61 in 1.2 mi South 11.5 mph - 0.00 in Snow Light Snow
6:13 AM 26.6 °F 16.2 °F 26.6 °F 100% 29.60 in 0.8 mi South 11.5 mph - 0.00 in Snow Light Snow
6:22 AM 26.6 °F 16.8 °F 26.6 °F 100% 29.60 in 1.0 mi South 10.4 mph - 0.00 in Snow Light Snow
6:46 AM 28.4 °F 19.1 °F 28.4 °F 100% 29.59 in 1.2 mi South 10.4 mph - 0.00 in Snow Light Snow
6:53 AM 28.0 °F 18.6 °F 28.0 °F 100% 29.59 in 1.2 mi South 10.4 mph - 0.00 in Snow Light Snow
7:08 AM 28.4 °F 19.7 °F 28.4 °F 100% 29.58 in 2.5 mi South 9.2 mph - 0.00 in Snow Light Snow
7:24 AM 28.4 °F 19.7 °F 28.4 °F 100% 29.58 in 1.2 mi South 9.2 mph - 0.00 in Snow Light Snow
7:53 AM 28.0 °F 21.7 °F 28.0 °F 100% 29.58 in 1.8 mi South 5.8 mph - 0.00 in Snow Light Snow
8:09 AM 28.4 °F 23.3 °F 28.4 °F 100% 29.57 in 2.0 mi South 4.6 mph - 0.00 in Snow Light Snow
8:17 AM 28.4 °F 24.6 °F 28.4 °F 100% 29.57 in 1.2 mi SSE 3.5 mph - 0.00 in Snow Light Snow
8:36 AM 28.4 °F 24.6 °F 28.4 °F 100% 29.57 in 1.5 mi ESE 3.5 mph - 0.00 in Snow Light Snow
8:53 AM 28.9 °F 25.2 °F 28.9 °F 100% 29.57 in 1.0 mi ESE 3.5 mph - 0.00 in Snow Light Snow
9:10 AM 28.4 °F - 28.4 °F 100% 29.56 in 0.8 mi Calm Calm - 0.01 in Snow Light Snow
9:37 AM 28.4 °F 24.6 °F 28.4 °F 100% 29.56 in 0.8 mi ENE 3.5 mph - 0.04 in Snow Light Snow
9:53 AM 28.9 °F 22.8 °F 28.0 °F 96% 29.56 in 0.8 mi ENE 5.8 mph - 0.05 in Snow Light Snow
10:35 AM 28.4 °F 22.2 °F 26.6 °F 93% 29.55 in 1.0 mi SE 5.8 mph - 0.02 in Snow Light Snow
10:53 AM 28.0 °F 21.7 °F 27.0 °F 96% 29.56 in 1.0 mi SE 5.8 mph - 0.03 in Snow Light Snow
11:02 AM 28.4 °F 23.3 °F 26.6 °F 93% 29.55 in 1.0 mi ESE 4.6 mph - 0.01 in Snow Light Snow
11:11 AM 28.4 °F 20.4 °F 26.6 °F 93% 29.56 in 1.2 mi East 8.1 mph - 0.02 in Snow Light Snow
11:21 AM 28.4 °F 21.2 °F 26.6 °F 93% 29.56 in 2.0 mi East 6.9 mph - 0.02 in Snow Light Snow
11:36 AM 26.6 °F 17.5 °F 24.8 °F 93% 29.56 in 5.0 mi East 9.2 mph - 0.03 in Snow Light Snow
11:53 AM 27.0 °F 15.6 °F 25.0 °F 92% 29.56 in 10.0 mi East 13.8 mph - 0.03 in   Overcast
12:15 PM 26.6 °F 16.8 °F 24.8 °F 93% 29.56 in 2.0 mi ESE 10.4 mph - 0.01 in Snow Light Snow
12:29 PM 26.6 °F 18.2 °F 26.6 °F 100% 29.55 in 2.0 mi ESE 8.1 mph - 0.01 in Snow Light Snow
12:36 PM 26.6 °F 18.2 °F 26.6 °F 100% 29.55 in 1.2 mi ESE 8.1 mph - 0.01 in Snow Light Snow
12:48 PM 26.6 °F 17.5 °F 26.6 °F 100% 29.55 in 1.0 mi ESE 9.2 mph - 0.01 in Snow Light Snow
12:53 PM 27.0 °F 16.1 °F 27.0 °F 100% 29.55 in 0.8 mi ESE 12.7 mph - 0.01 in Snow Light Snow
1:16 PM 26.6 °F 15.7 °F 26.6 °F 100% 29.55 in 0.5 mi ESE 12.7 mph - 0.01 in Fog , Snow Snow
1:43 PM 28.4 °F 19.7 °F 26.6 °F 93% 29.55 in 1.0 mi ESE 9.2 mph - 0.01 in Snow Light Snow
1:51 PM 28.4 °F 19.7 °F 26.6 °F 93% 29.55 in 0.5 mi ESE 9.2 mph - 0.01 in Fog , Snow Snow
1:53 PM 28.0 °F 19.3 °F 27.0 °F 96% 29.55 in 0.5 mi ESE 9.2 mph - 0.01 in Fog , Snow Snow
2:21 PM 28.4 °F 19.1 °F 28.4 °F 100% 29.55 in 0.5 mi East 10.4 mph - 0.02 in Fog , Snow Snow
2:53 PM 28.9 °F 21.1 °F 28.9 °F 100% 29.55 in 0.5 mi ESE 8.1 mph - 0.03 in Fog , Snow Snow
3:38 PM 28.4 °F 24.6 °F 28.4 °F 100% 29.54 in 0.5 mi SE 3.5 mph - 0.02 in Fog , Snow Snow
3:53 PM 28.0 °F 24.2 °F 28.0 °F 100% 29.54 in 1.2 mi SSE 3.5 mph - 0.03 in Snow Light Snow
4:13 PM 28.4 °F 24.6 °F 28.4 °F 100% 29.54 in 1.0 mi SE 3.5 mph - 0.00 in Snow Light Snow
4:17 PM 28.4 °F 24.6 °F 28.4 °F 100% 29.53 in 0.8 mi SE 3.5 mph - 0.00 in Snow Light Snow
4:40 PM 26.6 °F 20.0 °F 26.6 °F 100% 29.53 in 1.0 mi SSE 5.8 mph - 0.01 in Snow Light Snow
4:53 PM 26.1 °F 20.5 °F 26.1 °F 100% 29.53 in 1.8 mi South 4.6 mph - 0.01 in Snow Light Snow
5:20 PM 26.6 °F - 26.6 °F 100% 29.52 in 1.2 mi Calm Calm - 0.00 in Snow Light Snow
5:49 PM 26.6 °F - 26.6 °F 100% 29.52 in 2.0 mi Calm Calm - 0.00 in Snow Light Snow
5:53 PM 26.1 °F - 26.1 °F 100% 29.52 in 2.5 mi Calm Calm - 0.00 in Snow Light Snow
6:03 PM 26.6 °F - 26.6 °F 100% 29.51 in 3.0 mi Calm Calm - 0.00 in Snow Light Snow
6:15 PM 26.6 °F - 26.6 °F 100% 29.51 in 2.5 mi Calm Calm - 0.00 in Snow Light Snow
6:24 PM 26.6 °F 22.6 °F 26.6 °F 100% 29.51 in 1.2 mi ENE 3.5 mph - 0.00 in Snow Light Snow
6:36 PM 26.6 °F - 26.6 °F 100% 29.51 in 0.8 mi Calm Calm - 0.01 in Snow Light Snow
6:49 PM 26.6 °F - 24.8 °F 93% 29.51 in 1.0 mi Calm Calm - 0.01 in Snow Light Snow
6:53 PM 27.0 °F 23.0 °F 25.0 °F 92% 29.51 in 0.8 mi NNE 3.5 mph - 0.01 in Snow Light Snow
7:26 PM 26.6 °F 22.6 °F 24.8 °F 93% 29.50 in 1.2 mi NE 3.5 mph - 0.01 in Snow Light Snow
7:53 PM 27.0 °F 23.0 °F 26.1 °F 96% 29.50 in 1.0 mi NNE 3.5 mph - 0.01 in Snow Light Snow
8:09 PM 26.6 °F 21.2 °F 24.8 °F 93% 29.50 in 0.8 mi NE 4.6 mph - 0.00 in Snow Light Snow
8:29 PM 26.6 °F 22.6 °F 24.8 °F 93% 29.50 in 1.0 mi NNE 3.5 mph - 0.00 in Snow Light Snow
8:53 PM 26.1 °F 21.9 °F 25.0 °F 96% 29.50 in 0.5 mi NNE 3.5 mph - 0.00 in Fog , Snow Snow
9:05 PM 26.6 °F - 24.8 °F 93% 29.49 in 0.5 mi Calm Calm - 0.00 in Fog , Snow Snow
9:53 PM 26.1 °F - 25.0 °F 96% 29.49 in 0.5 mi Calm Calm - 0.00 in Fog , Snow Snow
10:13 PM 24.8 °F - 24.8 °F 100% 29.49 in 1.0 mi Calm Calm - 0.00 in Snow Light Snow
10:23 PM 24.8 °F - 24.8 °F 100% 29.48 in 0.8 mi Calm Calm - 0.00 in Snow Light Snow
10:29 PM 24.8 °F - 24.8 °F 100% 29.48 in 1.0 mi Calm Calm - 0.00 in Snow Light Snow
10:45 PM 24.8 °F - 24.8 °F 100% 29.48 in 2.0 mi Calm Calm - 0.00 in Snow Light Snow
10:53 PM 25.0 °F - 25.0 °F 100% 29.48 in 2.5 mi Calm Calm - 0.00 in Snow Light Snow
11:06 PM 24.8 °F - 24.8 °F 100% 29.48 in 1.5 mi Calm Calm - 0.00 in Snow Light Snow
11:24 PM 24.8 °F - 24.8 °F 100% 29.47 in 1.0 mi Calm Calm - 0.00 in Snow Light Snow
11:51 PM 24.8 °F 15.3 °F 24.8 °F 100% 29.46 in 1.5 mi WSW 9.2 mph - 0.00 in Snow Light Snow
11:53 PM 25.0 °F 14.8 °F 24.1 °F 96% 29.46 in 1.5 mi WSW 10.4 mph - 0.00 in Snow Light Snow